(301233) = 2009 BK25

Discovered at Mount Lemmon on 2009-01-19 by Mt. Lemmon Survey.

Orbit

Orbit type: Main Belt

Note: WebGL enabled browser required.

epoch2024-03-31.0
epoch JD2460400.5
perihelion date2020-07-23.14261
perihelion JD2459053.64261
argument of perihelion (°)114.52025
ascending node (°)51.62035
inclination (°)1.69848
eccentricity0.1346529
perihelion distance (AU)2.0917709
Tisserand w.r.t. Jupiter3.5
ΔV w.r.t. Earth (km/sec)9.0
semimajor axis (AU)2.4172623
mean anomaly (°)353.21553
mean daily motion (°/day)0.26225160
aphelion distance (AU)2.743
period (years)3.76
P-vector [x]-0.97057313
P-vector [y]0.20881929
P-vector [z]0.11992627
Q-vector [x]-0.23968300
Q-vector [y]-0.88577404
Q-vector [z]-0.39743731
absolute magnitude17.41
phase slope0.15
uncertainty0
referenceMPEC 2024-E179
observations used219
oppositions15
arc length (days)10961
first opposition used1994
last opposition used2024
residual rms (arc-secs)0.76
perturbers coarse indicatorM-v
perturbers precise indicator003Ek
first observation date used1994-03-08.0
last observation date used2024-03-11.0
computer nameMPCLINUX
JD of orbit computation2456909.306199
perihelion JD uncertainty (days)8.1375E-05
argument of perihelion uncertainty (°)2.2026E-04
ascending node uncertainty (°)2.1899E-04
inclination uncertainty (°)5.8048E-06
eccentricity uncertainty 7.7305E-08
perihelion distance uncertainty (AU)1.8134E-07
Minimum Orbit Intersection Distances (in AU)
for orbit epoch: 2460400.5, reference: E2024-GF4
Mercury1.70401
Venus1.37305
Earth1.09983
Mars0.42755
Jupiter2.22531
Saturn6.61594
Uranus16.3476
Neptune27.1449

Observations

226 total observations over interval: 1994 03 08.14061 – 2024 03 11.280580
These data are available for download (format description).

Date (UT) J2000 RA J2000 Dec Magn Location Ref
1994 03 08.14061 10 05 51.28 +14 57 47.1 20.5 V 691 – Steward Observatory, Kitt Peak-Spacewatch MPS 279686
1994 03 08.14861 10 05 50.89 +14 57 49.2   691 – Steward Observatory, Kitt Peak-Spacewatch MPS 279686
1994 03 08.15718 10 05 50.46 +14 57 50.7   691 – Steward Observatory, Kitt Peak-Spacewatch MPS 279686
2002 05 18.27310 15 56 18.69 -20 49 30.9 20.1   644 – Palomar Mountain/NEAT MPS 279686
2002 05 18.34429 15 56 14.08 -20 49 21.9 19.9   644 – Palomar Mountain/NEAT MPS 279686
2002 05 18.40673 15 56 10.08 -20 49 13.8 20.3   644 – Palomar Mountain/NEAT MPS 279686
2003 08 24.30893 23 43 08.85 -04 25 00.6 20.0 R 807 – Cerro Tololo Observatory, La Serena MPS 279686
2003 08 24.38064 23 43 05.65 -04 25 21.4   807 – Cerro Tololo Observatory, La Serena MPS 279686
2003 10 22.13867 22 59 06.70 -08 35 23.7 21.2 R 695 – Kitt Peak MPS 279686
2003 10 22.21847 22 59 05.07 -08 35 28.5   695 – Kitt Peak MPS 279686
2004 12 15.47373 07 21 38.61 +24 14 10.0 20.5 V 691 – Steward Observatory, Kitt Peak-Spacewatch MPS 279686
2004 12 15.49968 07 21 37.41 +24 14 13.8 20.1 V 691 – Steward Observatory, Kitt Peak-Spacewatch MPS 279686
2004 12 15.52765 07 21 36.05 +24 14 18.0 20.3 V 691 – Steward Observatory, Kitt Peak-Spacewatch MPS 279686
2007 10 08.29410 00 47 41.56 +03 17 18.9 20.5 V G96 – Mt. Lemmon Survey MPS 279686
2007 10 08.30182 00 47 41.17 +03 17 16.8 21.1 V G96 – Mt. Lemmon Survey MPS 279686
2007 10 08.30947 00 47 40.74 +03 17 14.2 21.2 V G96 – Mt. Lemmon Survey MPS 279686
2007 10 08.31713 00 47 40.27 +03 17 11.6 20.9 V G96 – Mt. Lemmon Survey MPS 279686
2007 10 19.27315 00 37 45.66 +02 21 08.8 21.3 V G96 – Mt. Lemmon Survey MPS 279686
2007 10 19.27980 00 37 45.30 +02 21 06.5 21.5 V G96 – Mt. Lemmon Survey MPS 279686
2007 10 19.28641 00 37 44.94 +02 21 04.9 21.4 V G96 – Mt. Lemmon Survey MPS 279686
2007 10 19.29300 00 37 44.58 +02 21 03.3 21.6 V G96 – Mt. Lemmon Survey MPS 279686
2009 01 19.42133 10 23 36.27 +13 11 32.0 19.8 V G96 – Mt. Lemmon Survey MPS 272947
2009 01 19.42840 10 23 36.13 +13 11 33.1 19.8 V G96 – Mt. Lemmon Survey MPS 272947
2009 01 19.45482 10 23 35.41 +13 11 38.4 20.2 V G96 – Mt. Lemmon Survey MPS 272947
2009 01 19.46189 10 23 35.26 +13 11 39.9 20.3 V G96 – Mt. Lemmon Survey MPS 272947
2009 01 24.73231 10 21 09.96 +13 30 59.0 19.7 R D29 – Purple Mountain Observatory, XuYi Station MPS 272947
2009 01 24.74820 10 21 09.45 +13 31 03.3 19.8 R D29 – Purple Mountain Observatory, XuYi Station MPS 272947
2009 01 24.76391 10 21 08.83 +13 31 07.0 19.4 R D29 – Purple Mountain Observatory, XuYi Station MPS 272947
2009 01 24.77880 10 21 08.32 +13 31 10.4 19.6 R D29 – Purple Mountain Observatory, XuYi Station MPS 272947
2009 02 14.38854 10 04 51.45 +15 12 28.8 19.7 V G96 – Mt. Lemmon Survey MPS 278776
2009 02 14.39651 10 04 50.98 +15 12 31.2 19.8 V G96 – Mt. Lemmon Survey MPS 278776
2009 02 14.40455 10 04 50.48 +15 12 33.6 19.7 V G96 – Mt. Lemmon Survey MPS 278776
2009 02 14.41235 10 04 50.05 +15 12 36.2 19.6 V G96 – Mt. Lemmon Survey MPS 278776
2009 02 14.92595 10 04 21.15 +15 15 13.0 19.6 V J75 – OAM Observatory, La Sagra MPS 279686
2009 02 14.93905 10 04 20.39 +15 15 18.0 19.3 V J75 – OAM Observatory, La Sagra MPS 279686
2009 02 14.95205 10 04 19.62 +15 15 21.7 19.6 V J75 – OAM Observatory, La Sagra MPS 279687
2009 02 19.89368 09 59 34.72 +15 40 10.5 19.1 V J75 – OAM Observatory, La Sagra MPS 278776
2009 02 19.90649 09 59 33.91 +15 40 12.9 19.1 V J75 – OAM Observatory, La Sagra MPS 278776
2009 02 19.91929 09 59 33.22 +15 40 18.3 19.5 V J75 – OAM Observatory, La Sagra MPS 278776
2009 03 24.22049 09 37 59.12 +17 00 29.5 20.3 V G96 – Mt. Lemmon Survey MPS 281355
2009 03 24.22882 09 37 58.98 +17 00 29.2 20.2 V G96 – Mt. Lemmon Survey MPS 281355
2009 03 24.23721 09 37 58.87 +17 00 28.5 20.2 V G96 – Mt. Lemmon Survey MPS 281355
2009 03 24.24554 09 37 58.72 +17 00 28.3 20.4 V G96 – Mt. Lemmon Survey MPS 281355
2011 09 20.45711 02 50 06.79 +15 19 46.5 21.1 V G96 – Mt. Lemmon Survey MPS 391219
2011 09 20.46351 02 50 06.72 +15 19 45.9 21.3 V G96 – Mt. Lemmon Survey MPS 391219
2011 09 20.46991 02 50 06.61 +15 19 45.2 21.4 V G96 – Mt. Lemmon Survey MPS 391219
2011 09 20.47630 02 50 06.46 +15 19 45.2 21.3 V G96 – Mt. Lemmon Survey MPS 391219
2011 09 28.42161 02 47 27.61 +15 09 53.9 21.5 V 691 – Steward Observatory, Kitt Peak-Spacewatch MPS 392747
2011 09 28.43938 02 47 27.07 +15 09 52.2 21.5 V 691 – Steward Observatory, Kitt Peak-Spacewatch MPS 392747
2011 09 28.45715 02 47 26.57 +15 09 49.6 21.6 V 691 – Steward Observatory, Kitt Peak-Spacewatch MPS 392747
2013 03 03.38273 13 15 15.19 -05 35 38.3   691 – Steward Observatory, Kitt Peak-Spacewatch MPS 461576
2013 03 03.40061 13 15 14.75 -05 35 36.8   691 – Steward Observatory, Kitt Peak-Spacewatch MPS 461576
2013 03 03.41851 13 15 14.45 -05 35 34.4   691 – Steward Observatory, Kitt Peak-Spacewatch MPS 461576
2013 03 07.33066 13 13 46.45 -05 26 39.7 20.3 V 691 – Steward Observatory, Kitt Peak-Spacewatch MPS 461576
2013 03 07.34832 13 13 45.98 -05 26 37.6 20.6 V 691 – Steward Observatory, Kitt Peak-Spacewatch MPS 461576
2013 03 07.36599 13 13 45.43 -05 26 34.6 20.3 V 691 – Steward Observatory, Kitt Peak-Spacewatch MPS 461576
2013 03 15.37590 13 09 18.90 -05 00 55.6 20.2 V 703 – Catalina Sky Survey MPS 460452
2013 03 15.38212 13 09 18.64 -05 00 54.3 20.3 V 703 – Catalina Sky Survey MPS 460452
2013 03 15.39456 13 09 18.18 -05 00 50.5 21.2 V 703 – Catalina Sky Survey MPS 460452
2013 03 15.40086 13 09 17.85 -05 00 47.8 19.7 V 703 – Catalina Sky Survey MPS 460452
2013 03 19.49171 13 06 23.763 -04 44 30.71 20.0 w F51 – Pan-STARRS 1, Haleakala MPS 461576
2013 03 19.50712 13 06 23.020 -04 44 26.76 20.0 w F51 – Pan-STARRS 1, Haleakala MPS 461576
2013 03 19.52253 13 06 22.272 -04 44 22.93 19.9 w F51 – Pan-STARRS 1, Haleakala MPS 461576
2013 03 31.30552 12 56 25.15 -03 50 21.2 19.5 V G96 – Mt. Lemmon Survey MPS 462594
2013 03 31.31325 12 56 24.72 -03 50 19.0 19.3 V G96 – Mt. Lemmon Survey MPS 462594
2013 03 31.32101 12 56 24.25 -03 50 17.1 19.2 V G96 – Mt. Lemmon Survey MPS 462594
2013 03 31.32882 12 56 23.82 -03 50 14.3 19.1 V G96 – Mt. Lemmon Survey MPS 462594
2013 03 31.34181 12 56 23.10 -03 50 10.9 19.2 V G96 – Mt. Lemmon Survey MPS 462594
2013 03 31.34421 12 56 22.95 -03 50 10.6 19.0 V G96 – Mt. Lemmon Survey MPS 462594
2013 03 31.34664 12 56 22.81 -03 50 09.6 19.2 V G96 – Mt. Lemmon Survey MPS 462594
2013 03 31.34905 12 56 22.70 -03 50 09.0 18.9 V G96 – Mt. Lemmon Survey MPS 462594
2013 04 01.38695 12 55 26.12 -03 45 10.3 19.0 R 926 – Tenagra II Observatory, Nogales MPS 462594
2013 04 01.40699 12 55 25.01 -03 45 04.3 18.9 R 926 – Tenagra II Observatory, Nogales MPS 462594
2013 04 01.42481 12 55 23.95 -03 44 59.4 18.8 R 926 – Tenagra II Observatory, Nogales MPS 462594
2013 04 04.43550 12 52 39.538 -03 30 36.24 19.7 g F51 – Pan-STARRS 1, Haleakala MPS 462594
2013 04 04.44711 12 52 38.867 -03 30 32.96 19.8 g F51 – Pan-STARRS 1, Haleakala MPS 462594
2013 04 06.33402 12 50 55.75 -03 21 42.3 19.2 V G96 – Mt. Lemmon Survey MPS 463923
2013 04 06.33870 12 50 55.50 -03 21 41.2 19.3 V G96 – Mt. Lemmon Survey MPS 463923
2013 04 06.34341 12 50 55.21 -03 21 39.8 19.2 V G96 – Mt. Lemmon Survey MPS 463923
2013 04 06.34810 12 50 54.96 -03 21 38.4 19.3 V G96 – Mt. Lemmon Survey MPS 463923
2013 04 08.37467 12 49 05.24 -03 12 19.5 19.6 R 926 – Tenagra II Observatory, Nogales MPS 463923
2013 04 08.39470 12 49 04.07 -03 12 13.7 19.4 R 926 – Tenagra II Observatory, Nogales MPS 463923
2013 04 08.41471 12 49 02.95 -03 12 08.5 19.7 R 926 – Tenagra II Observatory, Nogales MPS 463923
2013 04 11.37251 12 46 26.674 -02 59 02.29 19.8 w F51 – Pan-STARRS 1, Haleakala MPS 463923
2013 04 11.38618 12 46 25.918 -02 58 58.74 19.7 w F51 – Pan-STARRS 1, Haleakala MPS 463923
2013 04 11.41364 12 46 24.407 -02 58 51.68 19.8 w F51 – Pan-STARRS 1, Haleakala MPS 463923
2013 04 17.30245 12 41 32.721 -02 35 25.18 19.7 i F51 – Pan-STARRS 1, Haleakala MPS 464926
2013 04 17.31429 12 41 32.149 -02 35 22.66 19.8 i F51 – Pan-STARRS 1, Haleakala MPS 464926
2014 08 03.47089 22 03 14.116 -14 47 31.09 21.6 w F51 – Pan-STARRS 1, Haleakala MPS 526424
2014 08 03.48436 22 03 13.391 -14 47 34.99 21.4 w F51 – Pan-STARRS 1, Haleakala MPS 526424
